Location: Newark
(43.0000°N, 1.6781°W)
Time: 18:55:02
(UTC+00:00)

Altair - Visible Passes

Search period start: 19 April 2021 00:00
Search period end: 29 April 2021 00:00
Orbit: 1501 x 1683 km, 47.2° (Epoch: 19 April)

Date Brightness Start Highest point End Pass type
(mag) Time Alt. Az. Time Alt. Az. Time Alt. Az.
19 Apr 9.5 03:23:59 10° SSE 03:29:19 16° SE 03:34:33 10° E visible
20 Apr 9.5 02:59:46 10° SSE 03:04:17 14° ESE 03:08:44 10° E visible
21 Apr 9.5 02:35:49 10° SE 02:39:15 12° ESE 02:42:38 10° E visible
21 Apr 8.4 04:32:53 10° SSW 04:42:15 47° SE 04:51:18 10° ENE visible
22 Apr 9.6 02:12:40 10° SE 02:14:13 10° ESE 02:15:47 10° ESE visible
22 Apr 8.4 04:07:53 10° SSW 04:17:07 44° SE 04:26:04 10° ENE visible
23 Apr 8.4 03:43:07 11° SSW 03:52:00 41° SE 04:00:50 10° ENE visible
24 Apr 8.5 03:19:26 15° SSW 03:26:54 38° SE 03:35:34 10° ENE visible
25 Apr 8.5 02:55:42 19° S 03:01:47 35° SE 03:10:17 10° ENE visible
26 Apr 8.6 02:31:53 22° S 02:36:41 32° SE 02:44:59 10° ENE visible
26 Apr 7.7 04:30:35 10° WSW 04:40:37 80° SSE 04:50:19 10° ENE visible
27 Apr 8.6 02:08:02 24° SSE 02:11:36 29° SE 02:19:39 10° ENE visible
27 Apr 7.7 04:06:02 12° SW 04:15:26 76° SSE 04:25:08 10° ENE visible
28 Apr 8.6 01:44:06 25° SSE 01:46:31 27° SE 01:54:17 10° ENE visible
28 Apr 7.7 03:42:06 17° SW 03:50:14 73° SSE 03:59:56 10° ENE visible
